Cloud_Cover
100 100 100 39 100 100 100 100 98 100 100 100 100 100 100 100 40 6 0 0 0 12 48 21 100 100 100 100 100 88 100 100 100 100 100 100 100 100 100 100 100 100 100 95
100 79 57 100 100 100 69 99 97 100 100 100 100 100 100 95 5 5 0 0 0 29 25 5 68 100 100 100 100 96 47 79 100 100 100 100 100 100 100 100 100 100 100 100
100 94 58 100 100 100 86 92 100 74 100 100 100 100 96 52 21 5 0 0 0 0 100 96 89 62 100 100 100 54 86 100 100 100 100 100 100 100 100 100 100 100 100 100
100 71 24 100 100 100 100 100 100 89 100 100 100 100 73 53 77 5 0 0 0 0 54 100 71 64 100 100 100 100 98 100 100 100 100 100 100 100 100 100 100 100 100 100
100 85 100 100 100 100 100 98 100 100 100 100 100 100 100 96 5 5 0 0 0 0 0 10 100 100 95 32 95 94 100 100 100 100 100 100 100 100 100 100 100 100 100 100
82 100 100 100 100 100 100 99 100 100 100 99 100 93 29 93 100 21 0 0 0 0 0 2 56 95 92 70 100 100 100 100 100 100 100 100 100 100 100 100 100 100 100 100
100 100 100 100 100 100 100 100 100 100 97 51 100 78 5 87 100 100 4 0 0 0 0 0 3 72 75 100 100 100 100 100 100 100 100 100 100 100 100 100 100 100 100 100
99 100 100 100 100 100 100 98 100 80 56 92 100 8 98 100 100 99 3 0 0 0 0 1 6 6 100 100 77 100 100 100 100 100 100 100 100 100 100 100 100 100 100 100
100 100 100 100 100 100 100 100 99 100 75 100 100 100 100 100 100 24 3 0 0 0 0 5 3 100 100 98 100 100 100 100 100 100 100 100 100 100 100 100 100 90 97 100
99 100 100 100 100 100 100 98 82 98 97 100 100 100 100 99 99 9 0 0 0 0 3 5 0 99 100 76 100 99 100 100 100 100 100 100 100 100 100 100 100 100 100 100
100 100 100 100 100 100 100 100 88 100 100 100 84 94 100 100 71 18 2 0 0 0 0 0 0 0 98 100 100 100 100 100 93 100 100 82 100 100 100 100 100 100 100 100
100 100 100 100 100 100 97 90 58 100 100 100 100 100 100 100 71 5 0 0 0 0 0 0 0 0 0 16 4 100 100 100 100 79 96 100 40 61 100 100 100 100 100 100
100 100 100 100 100 100 100 66 7 100 100 100 100 100 100 100 66 4 0 5 0 0 0 0 0 0 0 0 0 2 95 100 100 100 100 100 100 81 45 71 98 98 100 100
100 100 100 100 100 84 100 100 100 100 100 100 100 100 100 100 78 5 0 1 5 0 0 0 0 0 0 0 0 0 14 5 75 100 100 100 100 99 56 6 5 5 45 87
100 100 100 54 19 85 81 84 100 100 100 100 100 100 100 100 100 28 5 4 0 0 0 0 0 0 0 0 0 0 0 4 5 7 93 99 100 100 92 95 25 5 5 5
88 100 100 100 100 100 69 99 100 100 100 100 100 100 100 9 5 5 6 98 20 0 0 0 0 0 0 0 0 0 0 0 0 0 14 12 100 100 100 100 100 100 100 91
76 100 100 100 100 100 25 82 100 100 100 100 100 100 97 10 27 25 100 31 8 12 0 0 0 0 0 5 2 5 0 0 0 0 0 0 43 100 100 98 100 100 100 100
42 57 95 100 100 100 100 62 50 86 100 100 100 100 100 100 100 100 100 100 6 5 2 2 5 5 0 0 7 12 5 6 5 5 4 5 18 22 100 100 98 87 100 100
77 96 90 97 100 100 100 8 66 89 86 100 100 100 100 100 100 100 100 43 15 41 9 5 5 4 26 5 4 80 42 17 92 5 5 5 16 54 59 72 98 100 100 100
99 32 57 98 100 100 100 100 57 93 98 98 83 59 85 78 25 5 5 94 100 100 58 95 5 5 70 100 68 6 80 92 89 80 100 54 78 93 100 100 100 100 100 100
65 99 100 55 31 22 5 5 5 6 41 30 5 5 5 5 6 29 92 100 100 94 41 99 49 96 81 100 100 71 46 75 84 100 100 100 67 96 100 100 100 100 100 100
49 91 97 92 92 93 100 82 58 56 97 68 61 100 86 100 100 100 100 6 58 8 85 98 75 100 96 95 99 81 100 100 86 92 100 100 100 99 100 100 100 100 100 100
87 29 88 100 100 100 100 68 100 100 100 100 100 100 100 100 97 30 14 15 94 100 100 98 10 79 91 100 60 100 100 75 100 99 85 100 100 100 100 100 100 100 100 100
5 9 43 56 80 43 24 28 38 44 71 100 100 100 100 100 82 84 86 89 88 54 40 72 100 7 100 100 59 61 77 99 100 100 100 100 100 100 100 100 100 100 100 100
45 30 57 57 25 5 9 18 5 5 79 83 38 88 61 72 96 49 90 68 100 87 28 50 94 81 21 94 95 63 100 67 98 100 100 100 100 100 100 100 100 100 100 100
5 15 24 83 96 61 66 6 44 68 84 89 44 62 71 50 5 10 7 20 55 57 90 79 86 100 83 100 100 99 100 100 84 88 100 100 100 100 100 100 100 100 100 100